{"data":{"norad_id":65176,"intl_designator":"2025-175C","name":"STARLINK-34707","alt_names":[],"object_type":"PAYLOAD","status":"ACTIVE","operator":null,"country":"US","launch_date":"2025-08-14","launch_site_code":"AFWTR","launch_vehicle":null,"mission":null,"orbit_class":"UNKNOWN","rcs_meters":null,"size_class":null,"mass_kg":null,"dimensions":null,"purposes":["comms"],"wikipedia_slug":null,"has_3d_model":false,"image_url":null,"decayed_at":null,"tle_current":{"epoch":"2026-05-25T02:22:10.779168Z","epoch_age_seconds":60368,"freshness":"FRESH","line1":"1 65176U 25175C   26145.09873587  .00007239  00000+0  50496-3 0  9997","line2":"2 65176  97.4504  17.5308 0002576  83.4872 276.6648 15.05671878 44131","mean_motion":15.05671878,"eccentricity":0.0002576,"inclination_deg":97.4504,"raan_deg":17.5308,"arg_perigee_deg":83.4872,"mean_anomaly_deg":276.6648,"bstar":0.00050496,"rev_number":4413,"period_min":95.638367232625,"perigee_km":547.65950137821,"apogee_km":551.22859113324,"semimajor_km":6927.5810462557,"source":"CELESTRAK","updated_at":"2026-05-25T13:38:20.689055Z"}}}